Cloud_Cover
0 0 0 0 0 0 0 0 0 0 5 5 5 5 5 2 0 2 0 0 0 0 0 0 0 46 100
0 1 0 0 0 0 0 0 0 0 4 5 5 11 5 5 4 4 4 0 0 0 0 0 0 1 98
5 5 5 0 0 0 1 1 4 0 0 5 5 5 5 3 0 0 5 4 1 0 0 0 0 0 100
5 5 5 5 5 5 5 5 5 0 0 1 0 0 0 0 0 0 0 4 5 0 0 0 1 4 85
5 5 5 5 5 5 5 5 2 4 5 0 0 0 0 0 0 4 5 5 4 5 0 0 0 2 57
5 15 5 5 5 5 5 5 5 4 5 5 0 0 0 0 4 5 5 5 5 11 5 2 0 0 0
5 5 5 2 5 5 5 10 5 5 5 5 2 5 0 0 1 7 34 91 35 5 5 5 2 0 0
5 5 5 5 36 85 89 92 7 5 5 29 2 5 5 3 90 92 100 34 5 5 5 5 5 2 0
5 6 38 42 68 96 19 16 5 5 5 5 5 5 5 5 75 100 100 11 5 1 0 0 1 3 0
2 4 5 5 5 5 5 6 9 35 2 27 5 13 60 5 6 5 4 5 2 0 0 0 5 5 5
70 10 5 5 5 5 5 5 7 5 0 56 31 6 50 54 6 4 0 3 0 0 0 3 5 5 5
5 6 5 5 5 5 5 5 5 23 4 6 46 28 84 80 92 13 5 5 5 5 5 5 0 0 5
10 5 5 5 5 5 5 5 5 5 5 5 5 5 59 100 96 100 100 90 5 5 5 5 5 5 5
5 5 5 5 5 5 5 5 14 5 5 5 5 19 22 97 100 79 65 98 5 5 5 5 5 5 5
5 5 5 5 5 5 5 6 69 6 5 5 5 5 21 70 88 5 5 5 5 5 5 5 5 5 5
5 5 5 5 5 5 5 6 5 5 5 5 8 30 30 20 5 6 16 23 5 5 5 37 10 5 5
5 5 5 5 6 5 5 5 5 5 5 5 16 78 100 99 5 4 28 5 5 5 5 6 5 5 5